Regional Weather Roundup
Issued by NWS

Home | Current Version | Previous Version | Text Only | Print | Product List | Glossary On
Versions: 1 2 3 4 5 6 7 8 9 10 11 12 13 14 15 16 17 18 19 20 21 22 23 24 25 26 27
000
ASUS46 KPQR 240610
RWROR

OREGON REGIONAL WEATHER ROUNDUP
NATIONAL WEATHER SERVICE PORTLAND OR
1100 PM PDT WED MAY 23 2018

NOTE: "FAIR" INDICATES FEW OR NO CLOUDS BELOW 12,000 FEET WITH
NO SIGNIFICANT WEATHER AND/OR OBSTRUCTIONS TO VISIBILITY.

ORZ001>013-240700-
NORTHWEST OREGON


CITY           SKY/WX    TMP DP  RH WIND       PRES   REMARKS
ASTORIA        CLOUDY    55  54  96 W7        29.98R FOG
6HR MIN TEMP:  55; 6HR MAX TEMP:  59;

TILLAMOOK      CLOUDY    55  50  82 SW3       30.01R
NEWPORT        CLOUDY    54  50  87 CALM      30.03S
PORTLAND       CLOUDY    62  49  62 N6        29.94R
6HR MIN TEMP:  62; 6HR MAX TEMP:  82;

VANCOUVER WA   CLOUDY    62  50  64 N6        29.94R
6HR MIN TEMP:  62; 6HR MAX TEMP:  81;

SCAPPOOSE      MOCLDY    58  49  72 N7        29.93R
6HR MIN TEMP:  58; 6HR MAX TEMP:  79;

HILLSBORO      CLOUDY    60  48  64 N12       29.93R
6HR MIN TEMP:  59; 6HR MAX TEMP:  82;

AURORA         CLOUDY    59  51  75 SW6       29.96R
6HR MIN TEMP:  59; 6HR MAX TEMP:  79;

MCMINNVILLE    CLOUDY    55  50  83 SW13      29.94R
6HR MIN TEMP:  55; 6HR MAX TEMP:  73;

SALEM          MOCLDY    57  49  74 SW7       29.97R
6HR MIN TEMP:  57; 6HR MAX TEMP:  77;

CORVALLIS      CLOUDY    55  49  80 W5        29.99R
EUGENE         CLOUDY    55  49  80 SW8       30.00R
6HR MIN TEMP:  55; 6HR MAX TEMP:  68;

$$

ORZ021-028-240700-
SOUTHWEST OREGON


CITY           SKY/WX    TMP DP  RH WIND       PRES   REMARKS
NORTH BEND     CLOUDY    56  52  86 CALM      30.04S
6HR MIN TEMP:  56; 6HR MAX TEMP:  59;

BROOKINGS      CLOUDY    53  51  93 CALM      30.03S
ROSEBURG       CLOUDY    59  49  69 N8        30.00R
6HR MIN TEMP:  59; 6HR MAX TEMP:  74;

SEXTON SUMMIT  MOCLDY    54  50  86 VRB3      30.00R
6HR MIN TEMP:  54; 6HR MAX TEMP:  71;

GRANTS PASS    FAIR      64  52  63 CALM      29.96R
MEDFORD        MOCLDY    63  60  90 SW3       29.93R
6HR MIN TEMP:  63; 6HR MAX TEMP:  81; 6HR PCP:  0.05;

$$

ORZ014>016-041-240700-
COLUMBIA GORGE


CITY           SKY/WX    TMP DP  RH WIND       PRES   REMARKS
TROUTDALE      CLOUDY    63  50  62 VRB5      29.94R
6HR MIN TEMP:  63; 6HR MAX TEMP:  82;

HOOD RIVER     CLEAR     68  52  56 W5        29.85R
THE DALLES     CLEAR     74  53  48 NW14G24   29.80R
6HR MIN TEMP:  74; 6HR MAX TEMP:  84;

$$

ORZ029>031-041-044-049-050-061>064-502-503-505>511-240700-
EASTERN OREGON


CITY           SKY/WX    TMP DP  RH WIND       PRES   REMARKS
MADRAS         MOCLDY    61  52  72 S7        29.92S
REDMOND        MOCLDY    59  53  80 S6        29.93S
6HR MIN TEMP:  59; 6HR MAX TEMP:  72; 6HR PCP:  0.01;

BEND           MOCLDY    61  52  72 S6        29.94S HAZE
PRINEVILLE     CLOUDY    59  54  82 S3        29.95S
KLAMATH FALLS  LGT RAIN  57  53  86 S3        30.02R
6HR MIN TEMP:  57; 6HR MAX TEMP:  65; 6HR PCP:  0.18;

LAKEVIEW       CLOUDY    53  52  96 SW3       30.05S
HERMISTON      MOCLDY    71  55  56 SW8       29.76R
6HR MIN TEMP:  71; 6HR MAX TEMP:  92;

PENDLETON      MOCLDY    68  51  54 S6        29.80R
6HR MIN TEMP:  68; 6HR MAX TEMP:  87;

JOHN DAY       PTCLDY    61  52  73 CALM      29.95S
MEACHAM        PTCLDY    56  49  77 CALM      29.92R
6HR MIN TEMP:  56; 6HR MAX TEMP:  75;

LA GRANDE      PTCLDY    67  49  52 SW8       29.88R
6HR MIN TEMP:  61; 6HR MAX TEMP:  75; 6HR PCP:  0.02;

BAKER CITY     CLOUDY    61  54  77 CALM      29.90R
6HR MIN TEMP:  60; 6HR MAX TEMP:  77;

BURNS          CLOUDY    55  51  86 CALM      29.98S
6HR MIN TEMP:  55; 6HR MAX TEMP:  64;

ROME             N/A     57  50  77 SE9       29.96S
6HR MIN TEMP:  57; 6HR MAX TEMP:  71;

ONTARIO        CLOUDY    67  58  72 CALM      29.89R
6HR MIN TEMP:  65; 6HR MAX TEMP:  74; 6HR PCP: TRACE;

$$




USA.gov is the U.S. government's official web portal to all federal, state and local government web resources and services.